"Sample Date","Sample Time","Sensor Name","Sample Value","Units","Flow Rate","Sample Interval","Sample Volume","Laser Status","Number Channels","Micron Size 0","Counts/Channel 0","Micron Size 1","Counts/Channel 1","Micron Size 2","Counts/Channel 2","Micron Size 3","Counts/Channel 3","Micron Size 4","Counts/Channel 4","Micron Size 5","Counts/Channel 5","Micron Size 6","Counts/Channel 6","Micron Size 7","Counts/Channel 7","Micron Size 8","Counts/Channel 8","Micron Size 9","Counts/Channel 9","Micron Size 10","Counts/Channel 10","Micron Size 11","Counts/Channel 11","Micron Size 12","Counts/Channel 12","Micron Size 13","Counts/Channel 13","Micron Size 14","Counts/Channel 14","Micron Size 15","Counts/Channel 15","Micron Size 16","Counts/Channel 16","Micron Size 17","Counts/Channel 17","Micron Size 18","Counts/Channel 18","Micron Size 19","Counts/Channel 19","Micron Size 20","Counts/Channel 20","Micron Size 21","Counts/Channel 21","Micron Size 22","Counts/Channel 22","Micron Size 23","Counts/Channel 23","Micron Size 24","Counts/Channel 24","Micron Size 25","Counts/Channel 25","Micron Size 26","Counts/Channel 26","Micron Size 27","Counts/Channel 27","Micron Size 28","Counts/Channel 28","Micron Size 29","Counts/Channel 29","Micron Size 30","Counts/Channel 30","Micron Size 31","Counts/Channel 31"
"07/09/06","12:00:01","AMMA06",32493.000,"cc",28316.529,6.00,2831.653,1,6,0.100,19690.000,0.200,11307.000,0.300,1277.000,0.500,128.000,1.000,91.000,5.000,0
"07/09/06","12:00:07","AMMA06",32086.000,"cc",28318.725,6.00,2831.873,1,6,0.100,19645.000,0.200,10929.000,0.300,1291.000,0.500,133.000,1.000,88.000,5.000,0
"07/09/06","12:00:13","AMMA06",32326.000,"cc",28356.816,6.00,2835.682,1,6,0.100,19642.000,0.200,11173.000,0.300,1284.000,0.500,130.000,1.000,97.000,5.000,0
"07/09/06","12:00:19","AMMA06",32567.000,"cc",28347.859,6.00,2834.786,1,6,0.100,19810.000,0.200,11232.000,0.300,1278.000,0.500,157.000,1.000,90.000,5.000,0
"07/09/06","12:00:25","AMMA06",32577.000,"cc",28301.143,6.00,2830.115,1,6,0.100,19629.000,0.200,11421.000,0.300,1306.000,0.500,132.000,1.000,89.000,5.000,0
"07/09/06","12:00:31","AMMA06",31806.000,"cc",28328.570,6.00,2832.857,1,6,0.100,19183.000,0.200,11118.000,0.300,1304.000,0.500,128.000,1.000,73.000,5.000,0
"07/09/06","12:00:37","AMMA06",32205.000,"cc",28278.484,6.00,2827.849,1,6,0.100,19247.000,0.200,11420.000,0.300,1324.000,0.500,133.000,1.000,81.000,5.000,0
"07/09/06","12:00:43","AMMA06",32105.000,"cc",28308.582,6.00,2830.858,1,6,0.100,19540.000,0.200,11081.000,0.300,1265.000,0.500,134.000,1.000,85.000,5.000,0
"07/09/06","12:00:49","AMMA06",32490.000,"cc",28302.057,6.00,2830.206,1,6,0.100,19537.000,0.200,11436.000,0.300,1288.000,0.500,148.000,1.000,81.000,5.000,0
"07/09/06","12:00:55","AMMA06",32584.000,"cc",28340.844,6.00,2834.085,1,6,0.100,19688.000,0.200,11382.000,0.300,1293.000,0.500,135.000,1.000,86.000,5.000,0
"07/09/06","12:01:01","AMMA06",32605.000,"cc",28286.998,6.00,2828.700,1,6,0.100,19547.000,0.200,11495.000,0.300,1329.000,0.500,150.000,1.000,84.000,5.000,0
"07/09/06","12:01:07","AMMA06",32303.000,"cc",28336.531,6.00,2833.653,1,6,0.100,19388.000,0.200,11364.000,0.300,1335.000,0.500,152.000,1.000,64.000,5.000,0
"07/09/06","12:01:13","AMMA06",32468.000,"cc",28346.713,6.00,2834.671,1,6,0.100,19500.000,0.200,11451.000,0.300,1300.000,0.500,135.000,1.000,82.000,5.000,0
"07/09/06","12:01:19","AMMA06",32286.000,"cc",28360.924,6.00,2836.093,1,6,0.100,19353.000,0.200,11431.000,0.300,1266.000,0.500,152.000,1.000,84.000,5.000,0
"07/09/06","12:01:25","AMMA06",32446.000,"cc",28306.621,6.00,2830.662,1,6,0.100,19589.000,0.200,11426.000,0.300,1239.000,0.500,119.000,1.000,73.000,5.000,0
"07/09/06","12:01:31","AMMA06",32448.000,"cc",28274.988,6.00,2827.499,1,6,0.100,19577.000,0.200,11374.000,0.300,1299.000,0.500,114.000,1.000,84.000,5.000,0
"07/09/06","12:01:37","AMMA06",32459.000,"cc",28348.584,6.00,2834.859,1,6,0.100,19535.000,0.200,11416.000,0.300,1291.000,0.500,135.000,1.000,82.000,5.000,0
"07/09/06","12:01:43","AMMA06",32417.000,"cc",28322.008,6.00,2832.201,1,6,0.100,19477.000,0.200,11366.000,0.300,1333.000,0.500,170.000,1.000,71.000,5.000,0
"07/09/06","12:01:49","AMMA06",32237.000,"cc",28287.695,6.00,2828.770,1,6,0.100,19351.000,0.200,11353.000,0.300,1291.000,0.500,148.000,1.000,94.000,5.000,0
"07/09/06","12:01:55","AMMA06",32322.000,"cc",28302.705,6.00,2830.271,1,6,0.100,19426.000,0.200,11342.000,0.300,1335.000,0.500,136.000,1.000,83.000,5.000,0
"07/09/06","12:02:01","AMMA06",32390.000,"cc",28329.557,6.00,2832.956,1,6,0.100,19494.000,0.200,11373.000,0.300,1315.000,0.500,151.000,1.000,57.000,5.000,0
"07/09/06","12:02:07","AMMA06",32450.000,"cc",28283.750,6.00,2828.375,1,6,0.100,19410.000,0.200,11605.000,0.300,1237.000,0.500,127.000,1.000,71.000,5.000,0
"07/09/06","12:02:13","AMMA06",32356.000,"cc",28286.990,6.00,2828.699,1,6,0.100,19418.000,0.200,11484.000,0.300,1263.000,0.500,126.000,1.000,65.000,5.000,0
"07/09/06","12:02:19","AMMA06",32665.000,"cc",28367.963,6.00,2836.796,1,6,0.100,19595.000,0.200,11529.000,0.300,1312.000,0.500,155.000,1.000,74.000,5.000,0
"07/09/06","12:02:25","AMMA06",32540.000,"cc",28319.072,6.00,2831.908,1,6,0.100,19716.000,0.200,11315.000,0.300,1299.000,0.500,129.000,1.000,81.000,5.000,0
"07/09/06","12:02:31","AMMA06",32035.000,"cc",28340.086,6.00,2834.009,1,6,0.100,19334.000,0.200,11201.000,0.300,1285.000,0.500,137.000,1.000,78.000,5.000,0
"07/09/06","12:02:37","AMMA06",32173.000,"cc",28332.877,6.00,2833.288,1,6,0.100,19468.000,0.200,11167.000,0.300,1331.000,0.500,130.000,1.000,77.000,5.000,0
"07/09/06","12:02:43","AMMA06",32539.000,"cc",28213.719,6.00,2821.372,1,6,0.100,19714.000,0.200,11299.000,0.300,1318.000,0.500,123.000,1.000,85.000,5.000,0
"07/09/06","12:02:49","AMMA06",32381.000,"cc",28304.053,6.00,2830.406,1,6,0.100,19587.000,0.200,11257.000,0.300,1299.000,0.500,149.000,1.000,89.000,5.000,0
"07/09/06","12:02:55","AMMA06",32615.000,"cc",28335.801,6.00,2833.580,1,6,0.100,19771.000,0.200,11261.000,0.300,1353.000,0.500,146.000,1.000,84.000,5.000,0
"07/09/06","12:03:01","AMMA06",32470.000,"cc",28325.723,6.00,2832.573,1,6,0.100,19781.000,0.200,11123.000,0.300,1344.000,0.500,136.000,1.000,86.000,5.000,0
"07/09/06","12:03:07","AMMA06",32772.000,"cc",28302.393,6.00,2830.240,1,6,0.100,20042.000,0.200,11233.000,0.300,1260.000,0.500,160.000,1.000,77.000,5.000,0
"07/09/06","12:03:13","AMMA06",32361.000,"cc",28360.016,6.00,2836.002,1,6,0.100,19748.000,0.200,11067.000,0.300,1344.000,0.500,140.000,1.000,62.000,5.000,0
"07/09/06","12:03:19","AMMA06",32549.000,"cc",28325.496,6.00,2832.550,1,6,0.100,19937.000,0.200,11058.000,0.300,1287.000,0.500,166.000,1.000,101.000,5.000,0
"07/09/06","12:03:25","AMMA06",32654.000,"cc",28292.322,6.00,2829.232,1,6,0.100,20102.000,0.200,11038.000,0.300,1294.000,0.500,157.000,1.000,63.000,5.000,0
"07/09/06","12:03:31","AMMA06",32609.000,"cc",28317.383,6.00,2831.739,1,6,0.100,19922.000,0.200,11121.000,0.300,1324.000,0.500,160.000,1.000,82.000,5.000,0
"07/09/06","12:03:37","AMMA06",32475.000,"cc",28359.936,6.00,2835.994,1,6,0.100,19751.000,0.200,11265.000,0.300,1238.000,0.500,143.000,1.000,78.000,5.000,0
"07/09/06","12:03:43","AMMA06",32593.000,"cc",28300.779,6.00,2830.078,1,6,0.100,19809.000,0.200,11317.000,0.300,1257.000,0.500,130.000,1.000,80.000,5.000,0
"07/09/06","12:03:49","AMMA06",32281.000,"cc",28263.934,6.00,2826.394,1,6,0.100,19823.000,0.200,11024.000,0.300,1206.000,0.500,154.000,1.000,74.000,5.000,0
"07/09/06","12:03:55","AMMA06",32810.000,"cc",28336.348,6.00,2833.635,1,6,0.100,19913.000,0.200,11267.000,0.300,1374.000,0.500,169.000,1.000,87.000,5.000,0
"07/09/06","12:04:01","AMMA06",32495.000,"cc",28358.857,6.00,2835.886,1,6,0.100,19862.000,0.200,11082.000,0.300,1284.000,0.500,164.000,1.000,103.000,5.000,0
"07/09/06","12:04:07","AMMA06",32728.000,"cc",28320.438,6.00,2832.044,1,6,0.100,20009.000,0.200,11242.000,0.300,1297.000,0.500,124.000,1.000,56.000,5.000,0
"07/09/06","12:04:13","AMMA06",32557.000,"cc",28299.869,6.00,2829.987,1,6,0.100,19981.000,0.200,11092.000,0.300,1261.000,0.500,152.000,1.000,71.000,5.000,0
"07/09/06","12:04:19","AMMA06",32395.000,"cc",28324.762,6.00,2832.476,1,6,0.100,19762.000,0.200,11112.000,0.300,1299.000,0.500,140.000,1.000,82.000,5.000,0
"07/09/06","12:04:25","AMMA06",32528.000,"cc",28286.600,6.00,2828.660,1,6,0.100,19977.000,0.200,11074.000,0.300,1248.000,0.500,159.000,1.000,70.000,5.000,0
"07/09/06","12:04:31","AMMA06",32449.000,"cc",28288.057,6.00,2828.806,1,6,0.100,19894.000,0.200,11098.000,0.300,1244.000,0.500,137.000,1.000,76.000,5.000,0
"07/09/06","12:04:37","AMMA06",32357.000,"cc",28333.904,6.00,2833.391,1,6,0.100,19920.000,0.200,10928.000,0.300,1272.000,0.500,166.000,1.000,71.000,5.000,0
"07/09/06","12:04:43","AMMA06",32359.000,"cc",28325.166,6.00,2832.517,1,6,0.100,19916.000,0.200,10990.000,0.300,1256.000,0.500,128.000,1.000,69.000,5.000,0
"07/09/06","12:04:49","AMMA06",32553.000,"cc",28275.307,6.00,2827.531,1,6,0.100,20041.000,0.200,11055.000,0.300,1246.000,0.500,140.000,1.000,71.000,5.000,0
"07/09/06","12:04:55","AMMA06",32301.000,"cc",28295.272,6.00,2829.527,1,6,0.100,19924.000,0.200,10936.000,0.300,1216.000,0.500,153.000,1.000,72.000,5.000,0
"07/09/06","12:05:01","AMMA06",32574.000,"cc",28337.979,6.00,2833.798,1,6,0.100,20115.000,0.200,10945.000,0.300,1282.000,0.500,154.000,1.000,78.000,5.000,0
"07/09/06","12:05:07","AMMA06",32720.000,"cc",28346.973,6.00,2834.698,1,6,0.100,20053.000,0.200,11073.000,0.300,1307.000,0.500,198.000,1.000,89.000,5.000,0
"07/09/06","12:05:13","AMMA06",32431.000,"cc",28292.391,6.00,2829.239,1,6,0.100,20139.000,0.200,10856.000,0.300,1238.000,0.500,135.000,1.000,63.000,5.000,0
"07/09/06","12:05:19","AMMA06",32508.000,"cc",28306.266,6.00,2830.627,1,6,0.100,20039.000,0.200,11088.000,0.300,1169.000,0.500,129.000,1.000,83.000,5.000,0
"07/09/06","12:05:25","AMMA06",32416.000,"cc",28347.578,6.00,2834.758,1,6,0.100,19996.000,0.200,10944.000,0.300,1278.000,0.500,147.000,1.000,51.000,5.000,0
"07/09/06","12:05:31","AMMA06",32488.000,"cc",28320.688,6.00,2832.069,1,6,0.100,19944.000,0.200,11125.000,0.300,1228.000,0.500,127.000,1.000,64.000,5.000,0
"07/09/06","12:05:37","AMMA06",32434.000,"cc",28339.615,6.00,2833.962,1,6,0.100,20099.000,0.200,10882.000,0.300,1257.000,0.500,138.000,1.000,58.000,5.000,0
"07/09/06","12:05:43","AMMA06",32329.000,"cc",28313.971,6.00,2831.397,1,6,0.100,20131.000,0.200,10798.000,0.300,1190.000,0.500,140.000,1.000,70.000,5.000,0
"07/09/06","12:05:49","AMMA06",32423.000,"cc",28297.498,6.00,2829.750,1,6,0.100,20187.000,0.200,10791.000,0.300,1225.000,0.500,146.000,1.000,74.000,5.000,0
"07/09/06","12:05:55","AMMA06",32791.000,"cc",28324.555,6.00,2832.456,1,6,0.100,20286.000,0.200,10983.000,0.300,1295.000,0.500,152.000,1.000,75.000,5.000,0
"07/09/06","12:06:01","AMMA06",32314.000,"cc",28352.557,6.00,2835.256,1,6,0.100,19790.000,0.200,11037.000,0.300,1260.000,0.500,150.000,1.000,76.000,5.000,1.000
"07/09/06","12:06:07","AMMA06",32675.000,"cc",28283.432,6.00,2828.343,1,6,0.100,20087.000,0.200,11090.000,0.300,1291.000,0.500,133.000,1.000,74.000,5.000,0
"07/09/06","12:06:13","AMMA06",32776.000,"cc",28298.365,6.00,2829.837,1,6,0.100,20317.000,0.200,11034.000,0.300,1212.000,0.500,137.000,1.000,76.000,5.000,0
"07/09/06","12:06:19","AMMA06",32775.000,"cc",28299.131,6.00,2829.913,1,6,0.100,20223.000,0.200,11134.000,0.300,1229.000,0.500,115.000,1.000,74.000,5.000,0
"07/09/06","12:06:25","AMMA06",32312.000,"cc",28318.982,6.00,2831.898,1,6,0.100,20184.000,0.200,10705.000,0.300,1197.000,0.500,145.000,1.000,81.000,5.000,0
"07/09/06","12:06:31","AMMA06",32334.000,"cc",28346.541,6.00,2834.654,1,6,0.100,20030.000,0.200,10833.000,0.300,1239.000,0.500,148.000,1.000,84.000,5.000,0
"07/09/06","12:06:37","AMMA06",32460.000,"cc",28314.277,6.00,2831.428,1,6,0.100,20138.000,0.200,10878.000,0.300,1240.000,0.500,129.000,1.000,75.000,5.000,0
"07/09/06","12:06:43","AMMA06",32400.000,"cc",28322.641,6.00,2832.264,1,6,0.100,19996.000,0.200,10947.000,0.300,1237.000,0.500,134.000,1.000,86.000,5.000,0
"07/09/06","12:06:49","AMMA06",32721.000,"cc",28320.131,6.00,2832.013,1,6,0.100,20084.000,0.200,11090.000,0.300,1333.000,0.500,142.000,1.000,72.000,5.000,0
"07/09/06","12:06:55","AMMA06",32549.000,"cc",28301.143,6.00,2830.115,1,6,0.100,20107.000,0.200,11014.000,0.300,1225.000,0.500,136.000,1.000,67.000,5.000,0
"07/09/06","12:07:01","AMMA06",32909.000,"cc",28330.553,6.00,2833.055,1,6,0.100,20218.000,0.200,11173.000,0.300,1321.000,0.500,121.000,1.000,76.000,5.000,0
"07/09/06","12:07:07","AMMA06",32964.000,"cc",28285.424,6.00,2828.543,1,6,0.100,20280.000,0.200,11180.000,0.300,1267.000,0.500,166.000,1.000,71.000,5.000,0
"07/09/06","12:07:13","AMMA06",32270.000,"cc",28351.785,6.00,2835.179,1,6,0.100,19872.000,0.200,10945.000,0.300,1193.000,0.500,171.000,1.000,89.000,5.000,0
"07/09/06","12:07:19","AMMA06",32707.000,"cc",28342.754,6.00,2834.276,1,6,0.100,20211.000,0.200,11113.000,0.300,1185.000,0.500,128.000,1.000,70.000,5.000,0
"07/09/06","12:07:25","AMMA06",32340.000,"cc",28327.690,6.00,2832.769,1,6,0.100,20012.000,0.200,10854.000,0.300,1238.000,0.500,167.000,1.000,69.000,5.000,0
"07/09/06","12:07:31","AMMA06",32496.000,"cc",28319.588,6.00,2831.959,1,6,0.100,20066.000,0.200,10925.000,0.300,1277.000,0.500,140.000,1.000,88.000,5.000,0
"07/09/06","12:07:37","AMMA06",32408.000,"cc",28313.066,6.00,2831.307,1,6,0.100,20095.000,0.200,10878.000,0.300,1210.000,0.500,137.000,1.000,88.000,5.000,0
"07/09/06","12:07:43","AMMA06",32750.000,"cc",28286.725,6.00,2828.673,1,6,0.100,20329.000,0.200,11030.000,0.300,1195.000,0.500,122.000,1.000,74.000,5.000,0
"07/09/06","12:07:49","AMMA06",32587.000,"cc",28344.486,6.00,2834.449,1,6,0.100,20100.000,0.200,11002.000,0.300,1264.000,0.500,143.000,1.000,78.000,5.000,0
"07/09/06","12:07:55","AMMA06",32581.000,"cc",28300.238,6.00,2830.024,1,6,0.100,20362.000,0.200,10749.000,0.300,1248.000,0.500,144.000,1.000,78.000,5.000,0
"07/09/06","12:08:01","AMMA06",32277.000,"cc",28290.594,6.00,2829.060,1,6,0.100,19941.000,0.200,10952.000,0.300,1180.000,0.500,126.000,1.000,78.000,5.000,0
"07/09/06","12:08:07","AMMA06",32472.000,"cc",28318.129,6.00,2831.813,1,6,0.100,20032.000,0.200,11006.000,0.300,1237.000,0.500,116.000,1.000,81.000,5.000,0
"07/09/06","12:08:13","AMMA06",32453.000,"cc",28301.289,6.00,2830.129,1,6,0.100,19995.000,0.200,10989.000,0.300,1257.000,0.500,136.000,1.000,76.000,5.000,0
"07/09/06","12:08:19","AMMA06",32670.000,"cc",28328.438,6.00,2832.844,1,6,0.100,20059.000,0.200,11039.000,0.300,1346.000,0.500,147.000,1.000,79.000,5.000,0
"07/09/06","12:08:25","AMMA06",32523.000,"cc",28334.090,6.00,2833.409,1,6,0.100,19929.000,0.200,11104.000,0.300,1243.000,0.500,170.000,1.000,77.000,5.000,0
"07/09/06","12:08:31","AMMA06",32709.000,"cc",28304.281,6.00,2830.428,1,6,0.100,20046.000,0.200,11135.000,0.300,1311.000,0.500,139.000,1.000,78.000,5.000,0
"07/09/06","12:08:37","AMMA06",33042.000,"cc",28342.768,6.00,2834.277,1,6,0.100,20341.000,0.200,11105.000,0.300,1332.000,0.500,181.000,1.000,83.000,5.000,0
"07/09/06","12:08:43","AMMA06",32696.000,"cc",28295.834,6.00,2829.584,1,6,0.100,20164.000,0.200,11042.000,0.300,1259.000,0.500,155.000,1.000,76.000,5.000,0
"07/09/06","12:08:49","AMMA06",32748.000,"cc",28311.459,6.00,2831.146,1,6,0.100,20187.000,0.200,11057.000,0.300,1267.000,0.500,149.000,1.000,88.000,5.000,0
"07/09/06","12:08:55","AMMA06",32615.000,"cc",28283.729,6.00,2828.373,1,6,0.100,20113.000,0.200,11042.000,0.300,1255.000,0.500,128.000,1.000,77.000,5.000,0
"07/09/06","12:09:01","AMMA06",32446.000,"cc",28315.553,6.00,2831.555,1,6,0.100,19907.000,0.200,11061.000,0.300,1246.000,0.500,161.000,1.000,71.000,5.000,0
"07/09/06","12:09:07","AMMA06",32692.000,"cc",28354.229,6.00,2835.423,1,6,0.100,20116.000,0.200,11099.000,0.300,1277.000,0.500,136.000,1.000,64.000,5.000,0
"07/09/06","12:09:13","AMMA06",32582.000,"cc",28345.912,6.00,2834.591,1,6,0.100,20092.000,0.200,11066.000,0.300,1200.000,0.500,148.000,1.000,76.000,5.000,0
"07/09/06","12:09:19","AMMA06",32552.000,"cc",28338.463,6.00,2833.846,1,6,0.100,19747.000,0.200,11254.000,0.300,1290.000,0.500,169.000,1.000,92.000,5.000,0
"07/09/06","12:09:25","AMMA06",32418.000,"cc",28294.498,6.00,2829.450,1,6,0.100,19826.000,0.200,11058.000,0.300,1298.000,0.500,157.000,1.000,79.000,5.000,0
"07/09/06","12:09:31","AMMA06",32627.000,"cc",28305.648,6.00,2830.565,1,6,0.100,19969.000,0.200,11193.000,0.300,1236.000,0.500,150.000,1.000,79.000,5.000,0
"07/09/06","12:09:37","AMMA06",32565.000,"cc",28345.615,6.00,2834.562,1,6,0.100,19945.000,0.200,11192.000,0.300,1229.000,0.500,136.000,1.000,63.000,5.000,0
"07/09/06","12:09:43","AMMA06",32688.000,"cc",28320.830,6.00,2832.083,1,6,0.100,19959.000,0.200,11218.000,0.300,1298.000,0.500,141.000,1.000,72.000,5.000,0
"07/09/06","12:09:49","AMMA06",32426.000,"cc",28310.566,6.00,2831.057,1,6,0.100,19751.000,0.200,11141.000,0.300,1325.000,0.500,136.000,1.000,73.000,5.000,0
"07/09/06","12:09:55","AMMA06",32680.000,"cc",28357.305,6.00,2835.731,1,6,0.100,19843.000,0.200,11320.000,0.300,1310.000,0.500,146.000,1.000,61.000,5.000,0
"07/09/06","12:10:01","AMMA06",32230.000,"cc",28309.576,6.00,2830.958,1,6,0.100,19615.000,0.200,11160.000,0.300,1242.000,0.500,125.000,1.000,88.000,5.000,0
"07/09/06","12:10:07","AMMA06",32727.000,"cc",28324.424,6.00,2832.443,1,6,0.100,20026.000,0.200,11255.000,0.300,1221.000,0.500,140.000,1.000,85.000,5.000,0
"07/09/06","12:10:13","AMMA06",32991.000,"cc",28321.736,6.00,2832.174,1,6,0.100,20054.000,0.200,11426.000,0.300,1292.000,0.500,135.000,1.000,84.000,5.000,0
"07/09/06","12:10:19","AMMA06",32696.000,"cc",28308.760,6.00,2830.876,1,6,0.100,19818.000,0.200,11377.000,0.300,1286.000,0.500,145.000,1.000,70.000,5.000,0
"07/09/06","12:10:25","AMMA06",32341.000,"cc",28361.713,6.00,2836.171,1,6,0.100,19423.000,0.200,11399.000,0.300,1314.000,0.500,132.000,1.000,73.000,5.000,0
"07/09/06","12:10:31","AMMA06",32513.000,"cc",28275.824,6.00,2827.583,1,6,0.100,19691.000,0.200,11291.000,0.300,1305.000,0.500,146.000,1.000,80.000,5.000,0
"07/09/06","12:10:37","AMMA06",32916.000,"cc",28309.652,6.00,2830.965,1,6,0.100,19765.000,0.200,11577.000,0.300,1347.000,0.500,149.000,1.000,78.000,5.000,0
"07/09/06","12:10:43","AMMA06",32714.000,"cc",28312.621,6.00,2831.262,1,6,0.100,19627.000,0.200,11584.000,0.300,1291.000,0.500,130.000,1.000,82.000,5.000,0
"07/09/06","12:10:49","AMMA06",32613.000,"cc",28267.408,6.00,2826.741,1,6,0.100,19684.000,0.200,11423.000,0.300,1291.000,0.500,134.000,1.000,81.000,5.000,0
"07/09/06","12:10:55","AMMA06",32705.000,"cc",28336.826,6.00,2833.683,1,6,0.100,19664.000,0.200,11469.000,0.300,1328.000,0.500,162.000,1.000,82.000,5.000,0
"07/09/06","12:11:01","AMMA06",33224.000,"cc",28323.201,6.00,2832.320,1,6,0.100,20146.000,0.200,11640.000,0.300,1241.000,0.500,126.000,1.000,71.000,5.000,0
"07/09/06","12:11:07","AMMA06",32842.000,"cc",28263.754,6.00,2826.376,1,6,0.100,19929.000,0.200,11351.000,0.300,1314.000,0.500,151.000,1.000,97.000,5.000,0
"07/09/06","12:11:13","AMMA06",32449.000,"cc",28322.176,6.00,2832.218,1,6,0.100,19502.000,0.200,11353.000,0.300,1342.000,0.500,171.000,1.000,81.000,5.000,0
"07/09/06","12:11:19","AMMA06",33136.000,"cc",28326.020,6.00,2832.602,1,6,0.100,20097.000,0.200,11497.000,0.300,1325.000,0.500,140.000,1.000,77.000,5.000,0
"07/09/06","12:11:25","AMMA06",32415.000,"cc",28293.775,6.00,2829.378,1,6,0.100,19503.000,0.200,11346.000,0.300,1331.000,0.500,160.000,1.000,75.000,5.000,0
"07/09/06","12:11:31","AMMA06",32516.000,"cc",28314.027,6.00,2831.403,1,6,0.100,19661.000,0.200,11320.000,0.300,1318.000,0.500,145.000,1.000,72.000,5.000,0
"07/09/06","12:11:37","AMMA06",32584.000,"cc",28330.506,6.00,2833.051,1,6,0.100,19921.000,0.200,11122.000,0.300,1323.000,0.500,150.000,1.000,68.000,5.000,0
"07/09/06","12:11:43","AMMA06",32721.000,"cc",28324.137,6.00,2832.414,1,6,0.100,19870.000,0.200,11315.000,0.300,1316.000,0.500,147.000,1.000,73.000,5.000,0
"07/09/06","12:11:49","AMMA06",32537.000,"cc",28303.063,6.00,2830.306,1,6,0.100,19689.000,0.200,11276.000,0.300,1326.000,0.500,166.000,1.000,80.000,5.000,0
"07/09/06","12:11:55","AMMA06",32576.000,"cc",28384.266,6.00,2838.427,1,6,0.100,19751.000,0.200,11298.000,0.300,1311.000,0.500,131.000,1.000,85.000,5.000,0
"07/09/06","12:12:01","AMMA06",32646.000,"cc",28345.445,6.00,2834.545,1,6,0.100,19900.000,0.200,11199.000,0.300,1297.000,0.500,166.000,1.000,84.000,5.000,0
"07/09/06","12:12:07","AMMA06",32824.000,"cc",28267.162,6.00,2826.716,1,6,0.100,19954.000,0.200,11338.000,0.300,1314.000,0.500,136.000,1.000,82.000,5.000,0
"07/09/06","12:12:13","AMMA06",32664.000,"cc",28304.529,6.00,2830.453,1,6,0.100,19858.000,0.200,11355.000,0.300,1225.000,0.500,146.000,1.000,80.000,5.000,0
"07/09/06","12:12:19","AMMA06",32439.000,"cc",28301.908,6.00,2830.191,1,6,0.100,19904.000,0.200,11107.000,0.300,1218.000,0.500,132.000,1.000,78.000,5.000,0
"07/09/06","12:12:25","AMMA06",32310.000,"cc",28380.994,6.00,2838.100,1,6,0.100,19749.000,0.200,11137.000,0.300,1243.000,0.500,115.000,1.000,66.000,5.000,0
"07/09/06","12:12:31","AMMA06",32513.000,"cc",28330.555,6.00,2833.056,1,6,0.100,19886.000,0.200,11108.000,0.300,1281.000,0.500,142.000,1.000,96.000,5.000,0
"07/09/06","12:12:37","AMMA06",32483.000,"cc",28366.342,6.00,2836.634,1,6,0.100,19867.000,0.200,11150.000,0.300,1243.000,0.500,153.000,1.000,70.000,5.000,0
"07/09/06","12:12:43","AMMA06",32431.000,"cc",28271.816,6.00,2827.182,1,6,0.100,19679.000,0.200,11290.000,0.300,1252.000,0.500,131.000,1.000,79.000,5.000,0
"07/09/06","12:12:49","AMMA06",32768.000,"cc",28306.412,6.00,2830.641,1,6,0.100,20085.000,0.200,11225.000,0.300,1259.000,0.500,124.000,1.000,75.000,5.000,0
"07/09/06","12:12:55","AMMA06",32574.000,"cc",28262.455,6.00,2826.246,1,6,0.100,19837.000,0.200,11182.000,0.300,1305.000,0.500,170.000,1.000,80.000,5.000,0
"07/09/06","12:13:01","AMMA06",32797.000,"cc",28308.051,6.00,2830.805,1,6,0.100,20134.000,0.200,11188.000,0.300,1275.000,0.500,136.000,1.000,64.000,5.000,0
"07/09/06","12:13:07","AMMA06",32462.000,"cc",28332.641,6.00,2833.264,1,6,0.100,19786.000,0.200,11226.000,0.300,1210.000,0.500,160.000,1.000,80.000,5.000,0
"07/09/06","12:13:13","AMMA06",32752.000,"cc",28304.559,6.00,2830.456,1,6,0.100,20103.000,0.200,11155.000,0.300,1254.000,0.500,154.000,1.000,86.000,5.000,0
"07/09/06","12:13:19","AMMA06",32262.000,"cc",28357.107,6.00,2835.711,1,6,0.100,19843.000,0.200,10999.000,0.300,1198.000,0.500,159.000,1.000,63.000,5.000,0
"07/09/06","12:13:25","AMMA06",32533.000,"cc",28322.232,6.00,2832.223,1,6,0.100,19834.000,0.200,11296.000,0.300,1181.000,0.500,134.000,1.000,88.000,5.000,0
"07/09/06","12:13:31","AMMA06",32548.000,"cc",28297.924,6.00,2829.793,1,6,0.100,19833.000,0.200,11161.000,0.300,1339.000,0.500,134.000,1.000,81.000,5.000,0
"07/09/06","12:13:37","AMMA06",32879.000,"cc",28310.086,6.00,2831.009,1,6,0.100,20071.000,0.200,11241.000,0.300,1325.000,0.500,143.000,1.000,99.000,5.000,0
"07/09/06","12:13:43","AMMA06",32791.000,"cc",28359.158,6.00,2835.916,1,6,0.100,20018.000,0.200,11347.000,0.300,1215.000,0.500,142.000,1.000,69.000,5.000,0
"07/09/06","12:13:49","AMMA06",32410.000,"cc",28272.969,6.00,2827.297,1,6,0.100,19866.000,0.200,11070.000,0.300,1230.000,0.500,156.000,1.000,88.000,5.000,0
"07/09/06","12:13:55","AMMA06",32266.000,"cc",28313.482,6.00,2831.348,1,6,0.100,19694.000,0.200,11140.000,0.300,1218.000,0.500,134.000,1.000,80.000,5.000,0
"07/09/06","12:14:01","AMMA06",32687.000,"cc",28338.936,6.00,2833.894,1,6,0.100,19935.000,0.200,11214.000,0.300,1332.000,0.500,144.000,1.000,62.000,5.000,0
"07/09/06","12:14:07","AMMA06",32552.000,"cc",28296.606,6.00,2829.661,1,6,0.100,19767.000,0.200,11226.000,0.300,1330.000,0.500,160.000,1.000,69.000,5.000,0
"07/09/06","12:14:13","AMMA06",32739.000,"cc",28319.854,6.00,2831.986,1,6,0.100,20073.000,0.200,11267.000,0.300,1182.000,0.500,134.000,1.000,83.000,5.000,0
"07/09/06","12:14:19","AMMA06",32595.000,"cc",28294.186,6.00,2829.419,1,6,0.100,20061.000,0.200,11081.000,0.300,1238.000,0.500,150.000,1.000,65.000,5.000,0